When you browse on this site, cookies collect data to enhance your experience and personalize the content and advertising you see.
Visit our Privacy Policy to learn more. By continuing to use the site, you agree to this use of cookies and data.
  • In Österreich
  • Länderverzeichnis
  • Für 7 Tage
  • Wassertemperatur
  • Wetterkarte
  • News
  • Widgets
  • user-avatar
    Anmelden

    Stündliche Wetter Kapan

    Heute, 28 Februar, Freitag

    Zeit Temperatur Niederschläge Wind Luftdruck Luftfeuchtigkeit
    00:00 +8°C° 0 mm 3 m/S 684 mmHg 31%
    01:00 +8°C° 0 mm 3 m/S 684 mmHg 31%
    02:00 +8°C° 0 mm 3 m/S 683 mmHg 31%
    03:00 +7°C° 0 mm 4 m/S 683 mmHg 31%
    04:00 +7°C° 0 mm 4 m/S 682 mmHg 32%
    05:00 +7°C° 0 mm 4 m/S 682 mmHg 32%
    06:00 +7°C° 0 mm 4 m/S 682 mmHg 33%
    07:00 +8°C° 0 mm 4 m/S 682 mmHg 35%
    08:00 +10°C° 0 mm 3 m/S 682 mmHg 37%
    09:00 +12°C° 0 mm 3 m/S 683 mmHg 40%
    10:00 +13°C° 0 mm 3 m/S 683 mmHg 39%
    11:00 +14°C° 0 mm 3 m/S 683 mmHg 38%
    12:00 +16°C° 0 mm 3 m/S 682 mmHg 37%
    13:00 +16°C° 0 mm 3 m/S 682 mmHg 36%
    14:00 +16°C° 0 mm 3 m/S 682 mmHg 36%
    15:00 +16°C° 0 mm 3 m/S 681 mmHg 35%
    16:00 +13°C° 0 mm 3 m/S 681 mmHg 37%
    17:00 +12°C° 0 mm 4 m/S 681 mmHg 40%
    18:00 +10°C° 0 mm 4 m/S 681 mmHg 42%
    19:00 +8°C° 0 mm 4 m/S 681 mmHg 44%
    20:00 +8°C° 0 mm 4 m/S 681 mmHg 45%
    21:00 +8°C° 0 mm 4 m/S 681 mmHg 47%
    22:00 +8°C° 0 mm 3 m/S 681 mmHg 48%
    23:00 +8°C° 0 mm 3 m/S 681 mmHg 49%

    Morgen, 29 Februar, Samstag

    Zeit Temperatur Niederschläge Wind Luftdruck Luftfeuchtigkeit
    00:00 +8°C° 0 mm 3 m/S 681 mmHg 50%
    01:00 +8°C° 0 mm 2 m/S 681 mmHg 51%
    02:00 +8°C° 0 mm 2 m/S 681 mmHg 51%
    03:00 +8°C° 0 mm 1 m/S 681 mmHg 52%
    04:00 +8°C° 0 mm 1 m/S 681 mmHg 54%
    05:00 +8°C° 0 mm 1 m/S 681 mmHg 55%
    06:00 +6°C° 0 mm 0 m/S 681 mmHg 56%
    07:00 +7°C° 0 mm 0 m/S 681 mmHg 55%
    08:00 +9°C° 0 mm 1 m/S 681 mmHg 53%
    09:00 +10°C° 0 mm 1 m/S 682 mmHg 52%
    10:00 +11°C° 0 mm 1 m/S 681 mmHg 52%
    11:00 +12°C° 0 mm 1 m/S 681 mmHg 51%
    12:00 +13°C° 0 mm 1 m/S 681 mmHg 51%
    13:00 +13°C° 0 mm 2 m/S 680 mmHg 52%
    14:00 +13°C° 0 mm 2 m/S 680 mmHg 52%
    15:00 +13°C° 0 mm 2 m/S 679 mmHg 53%
    16:00 +12°C° 0 mm 2 m/S 679 mmHg 57%
    17:00 +10°C° 0 mm 2 m/S 679 mmHg 62%
    18:00 +10°C° 0 mm 1 m/S 679 mmHg 66%
    19:00 +9°C° 0 mm 1 m/S 679 mmHg 69%
    20:00 +9°C° 0 mm 1 m/S 679 mmHg 71%
    21:00 +8°C° 0 mm 1 m/S 679 mmHg 73%
    22:00 +8°C° 0 mm 1 m/S 679 mmHg 72%
    23:00 +8°C° 0 mm 1 m/S 678 mmHg 72%

    übermorgen, 1 März, Sonntag

    Zeit Temperatur Niederschläge Wind Luftdruck Luftfeuchtigkeit
    00:00 +7°C° 0 mm 1 m/S 678 mmHg 71%
    01:00 +7°C° 0 mm 1 m/S 678 mmHg 71%
    02:00 +7°C° 0 mm 1 m/S 678 mmHg 71%
    03:00 +6°C° 0 mm 2 m/S 678 mmHg 70%
    04:00 +6°C° 0 mm 2 m/S 678 mmHg 70%
    05:00 +6°C° 0 mm 2 m/S 678 mmHg 70%
    06:00 +6°C° 0 mm 2 m/S 679 mmHg 70%
    07:00 +8°C° 0 mm 1 m/S 679 mmHg 68%
    08:00 +9°C° 0 mm 1 m/S 680 mmHg 65%
    09:00 +10°C° 0 mm 1 m/S 680 mmHg 63%
    10:00 +10°C° 0 mm 2 m/S 680 mmHg 64%
    11:00 +10°C° 0 mm 2 m/S 680 mmHg 64%
    12:00 +10°C° 0 mm 3 m/S 680 mmHg 64%
    13:00 +10°C° 0.1 mm 3 m/S 679 mmHg 65%
    14:00 +10°C° 0.1 mm 3 m/S 679 mmHg 65%
    15:00 +10°C° 0.1 mm 3 m/S 679 mmHg 66%
    16:00 +9°C° 0 mm 3 m/S 679 mmHg 69%
    17:00 +8°C° 0 mm 2 m/S 679 mmHg 73%
    18:00 +7°C° 0 mm 2 m/S 679 mmHg 77%
    19:00 +6°C° 0.2 mm 2 m/S 680 mmHg 82%
    20:00 +6°C° 0.2 mm 2 m/S 680 mmHg 86%
    21:00 +7°C° 0.2 mm 1 m/S 681 mmHg 90%
    22:00 +5°C° 1 mm 2 m/S 681 mmHg 91%
    23:00 +5°C° 1 mm 2 m/S 681 mmHg 93%

    2 März, Montag

    Zeit Temperatur Niederschläge Wind Luftdruck Luftfeuchtigkeit
    00:00 +3°C° 1 mm 3 m/S 682 mmHg 94%
    01:00 +3°C° 1.1 mm 3 m/S 682 mmHg 95%
    02:00 +2°C° 1.1 mm 3 m/S 682 mmHg 95%
    03:00 +1°C° 1.1 mm 3 m/S 682 mmHg 96%
    04:00 +2°C° 0.8 mm 2 m/S 682 mmHg 95%
    05:00 +1°C° 0.8 mm 2 m/S 683 mmHg 95%
    06:00 +1°C° 0.8 mm 2 m/S 683 mmHg 95%
    07:00 +1°C° 0.2 mm 2 m/S 684 mmHg 94%
    08:00 +1°C° 0.2 mm 2 m/S 684 mmHg 94%
    09:00 +2°C° 0.2 mm 2 m/S 685 mmHg 93%
    10:00 +2°C° 0.1 mm 2 m/S 685 mmHg 92%
    11:00 +2°C° 0.1 mm 2 m/S 685 mmHg 90%
    12:00 +3°C° 0.1 mm 2 m/S 685 mmHg 89%
    13:00 +3°C° 0 mm 2 m/S 685 mmHg 87%
    14:00 +4°C° 0 mm 2 m/S 685 mmHg 85%
    15:00 +4°C° 0 mm 2 m/S 685 mmHg 83%
    16:00 +5°C° 0 mm 1 m/S 685 mmHg 85%
    17:00 +4°C° 0 mm 1 m/S 685 mmHg 86%
    18:00 +4°C° 0 mm 1 m/S 685 mmHg 88%
    19:00 +3°C° 0 mm 0 m/S 685 mmHg 87%
    20:00 +3°C° 0 mm 0 m/S 686 mmHg 87%
    21:00 +2°C° 0 mm 0 m/S 686 mmHg 87%
    22:00 +2°C° 0 mm 0 m/S 686 mmHg 86%
    23:00 +2°C° 0 mm 0 m/S 687 mmHg 85%

    3 März, Dienstag

    Zeit Temperatur Niederschläge Wind Luftdruck Luftfeuchtigkeit
    00:00 +2°C° 0 mm 0 m/S 687 mmHg 84%
    01:00 +2°C° 0 mm 0 m/S 687 mmHg 84%
    02:00 +2°C° 0 mm 0 m/S 687 mmHg 83%
    03:00 +2°C° 0 mm 0 m/S 687 mmHg 82%
    04:00 +2°C° 0 mm 0 m/S 687 mmHg 81%
    05:00 +2°C° 0 mm 0 m/S 687 mmHg 80%
    06:00 +2°C° 0 mm 0 m/S 687 mmHg 80%
    07:00 +3°C° 0 mm 0 m/S 688 mmHg 77%
    08:00 +4°C° 0 mm 0 m/S 688 mmHg 74%
    09:00 +6°C° 0 mm 1 m/S 689 mmHg 72%
    10:00 +7°C° 0 mm 1 m/S 688 mmHg 71%
    11:00 +8°C° 0 mm 1 m/S 688 mmHg 70%
    12:00 +9°C° 0 mm 1 m/S 688 mmHg 68%
    13:00 +10°C° 0 mm 1 m/S 688 mmHg 67%
    14:00 +10°C° 0 mm 1 m/S 687 mmHg 66%
    15:00 +11°C° 0 mm 1 m/S 687 mmHg 65%
    16:00 +9°C° 0 mm 1 m/S 687 mmHg 70%
    17:00 +8°C° 0 mm 1 m/S 687 mmHg 74%
    18:00 +7°C° 0 mm 1 m/S 687 mmHg 79%
    19:00 +7°C° 0 mm 1 m/S 687 mmHg 79%
    20:00 +6°C° 0 mm 1 m/S 688 mmHg 79%
    21:00 +5°C° 0 mm 0 m/S 688 mmHg 79%
    22:00 +5°C° 0 mm 0 m/S 688 mmHg 79%
    23:00 +5°C° 0 mm 0 m/S 688 mmHg 79%

    4 März, Mittwoch

    Zeit Temperatur Niederschläge Wind Luftdruck Luftfeuchtigkeit
    00:00 +4°C° 0 mm 0 m/S 688 mmHg 78%
    01:00 +4°C° 0 mm 0 m/S 688 mmHg 77%
    02:00 +4°C° 0 mm 0 m/S 688 mmHg 76%
    03:00 +4°C° 0 mm 0 m/S 688 mmHg 75%
    04:00 +4°C° 0 mm 0 m/S 688 mmHg 74%
    05:00 +4°C° 0 mm 0 m/S 688 mmHg 73%
    06:00 +4°C° 0 mm 0 m/S 688 mmHg 72%
    07:00 +5°C° 0 mm 0 m/S 689 mmHg 69%
    08:00 +8°C° 0 mm 1 m/S 689 mmHg 66%
    09:00 +9°C° 0 mm 1 m/S 689 mmHg 64%
    10:00 +10°C° 0 mm 1 m/S 689 mmHg 63%
    11:00 +11°C° 0 mm 1 m/S 689 mmHg 62%
    12:00 +12°C° 0 mm 2 m/S 689 mmHg 61%
    13:00 +12°C° 0 mm 2 m/S 688 mmHg 61%
    14:00 +12°C° 0 mm 2 m/S 688 mmHg 61%
    15:00 +13°C° 0 mm 2 m/S 688 mmHg 61%
    16:00 +11°C° 0 mm 1 m/S 687 mmHg 67%
    17:00 +10°C° 0 mm 1 m/S 687 mmHg 73%
    18:00 +9°C° 0 mm 1 m/S 687 mmHg 79%
    19:00 +9°C° 0 mm 1 m/S 687 mmHg 77%
    20:00 +8°C° 0 mm 1 m/S 687 mmHg 76%
    21:00 +7°C° 0 mm 0 m/S 687 mmHg 75%
    22:00 +8°C° 0 mm 1 m/S 687 mmHg 72%
    23:00 +8°C° 0 mm 1 m/S 686 mmHg 70%
    Mehr zeigen